Corbin, Kentucky, United States (40701)
Lat: 36.95N, Lon: 84.1W
Wx Zone: KYZ085
Local Info
Past Weather Observations for Today

NOTE: This archive is for the closest National Weather Service station to Corbin. Information may differ from the station used for current weather conditions.

Click here for Long-term Archive

Time Weather Temperature Dewpoint Humidity Pressure Winds Precip Visibility
14:53
Overcast
Rain
72°F / 22°C 68°F / 20°C 88% 29.95 in
(1014 mb)
Calm 0.11 in
(2.79 mm)
5SM
14:49
Mostly Cloudy
Light Rain
72°F / 22°C 68°F / 20°C 88% 29.95 in
(1014 mb)
Calm 0.11 in
(2.79 mm)
4SM
14:18
Overcast
Rain
72°F / 22°C 68°F / 20°C 88% 29.95 in
(1014 mb)
N 4.6 mph
(N 7 kph)
0.01 in
(0.25 mm)
2 1/2SM
14:08
Overcast
Light Rain
73°F / 23°C 68°F / 20°C 83% 29.95 in
(1014 mb)
Variable 5.8 mph
(Variable 9 kph)
0.00 in
(0.00 mm)
6SM
13:53
Overcast
75°F / 24°C 68°F / 20°C 78% 29.95 in
(1014 mb)
N 9.2 mph
(N 15 kph)
0.01 in
(0.25 mm)
10SM
13:38
Overcast
75°F / 24°C 68°F / 20°C 78% 29.95 in
(1014 mb)
NNW 8.1 mph
(NNW 13 kph)
0.01 in
(0.25 mm)
10SM
12:53
Mostly Cloudy
75°F / 24°C 66°F / 19°C 74% 29.95 in
(1014 mb)
NW 6.9 mph
(NW 11 kph)
0.00 in
(0.00 mm)
10SM
12:02
Mostly Cloudy
72°F / 22°C 68°F / 20°C 88% 29.98 in
(1015 mb)
Variable 3.5 mph
(Variable 6 kph)
0.00 in
(0.00 mm)
10SM
11:53
Overcast
Light Rain
72°F / 22°C 66°F / 19°C 83% 29.98 in
(1015 mb)
Calm 0.78 in
(19.81 mm)
9SM
11:48
Overcast
Light Rain
70°F / 21°C 66°F / 19°C 88% 29.98 in
(1015 mb)
NE 3.5 mph
(NE 6 kph)
0.78 in
(19.81 mm)
3SM
11:42
Overcast
Thunder Storms
70°F / 21°C 66°F / 19°C 88% 29.98 in
(1015 mb)
Variable 3.5 mph
(Variable 6 kph)
0.78 in
(19.81 mm)
1 1/4SM
11:30
Overcast
Thunder Storms
70°F / 21°C 66°F / 19°C 88% 29.98 in
(1015 mb)
Variable 3.5 mph
(Variable 6 kph)
0.72 in
(18.29 mm)
1 1/4SM
11:22
Overcast
Thunder Storms
70°F / 21°C 68°F / 20°C 94% 29.98 in
(1015 mb)
W 12.7 mph
(W 20 kph)
0.66 in
(16.76 mm)
1/2SM
11:19
Overcast
Heavy Rain
72°F / 22°C 70°F / 21°C 94% 29.98 in
(1015 mb)
NW 9.2 mph
(NW 15 kph)
0.63 in
(16.00 mm)
1/4SM
11:12
Overcast
Thunder Storms
73°F / 23°C 70°F / 21°C 89% 29.98 in
(1015 mb)
WNW 12.7 mph
(WNW 20 kph)
0.40 in
(10.16 mm)
1/2SM
11:07
Overcast
Thunder Storms
73°F / 23°C 70°F / 21°C 89% 29.98 in
(1015 mb)
NW 13.8 mph
(NW 22 kph)
0.18 in
(4.57 mm)
3/4SM
11:02
Overcast
Heavy Rain
75°F / 24°C 70°F / 21°C 83% 29.98 in
(1015 mb)
W 13.8 mph
(W 22 kph)
0.07 in
(1.78 mm)
1 3/4SM
10:53
Overcast
Light Rain
79°F / 26°C 70°F / 21°C 74% 29.95 in
(1014 mb)
SSW 10.4 mph
(SSW 17 kph)
0.00 in
(0.00 mm)
10SM
10:36
Overcast
79°F / 26°C 70°F / 21°C 74% 29.95 in
(1014 mb)
SW 15 mph
(SW 24 kph)
- 10SM
09:53
Overcast
79°F / 26°C 70°F / 21°C 74% 29.98 in
(1015 mb)
SW 11.5 mph
(SW 19 kph)
- 10SM
08:53
Overcast
79°F / 26°C 70°F / 21°C 74% 29.98 in
(1015 mb)
SSE 11.5 mph
(SSE 19 kph)
- 10SM
08:51
Overcast
79°F / 26°C 70°F / 21°C 74% 29.98 in
(1015 mb)
SW 11.5 mph
(SW 19 kph)
- 10SM
07:53
Overcast
75°F / 24°C 70°F / 21°C 83% 29.98 in
(1015 mb)
S 5.8 mph
(S 9 kph)
- 10SM
07:01
Mostly Cloudy
73°F / 23°C 68°F / 20°C 83% 29.98 in
(1015 mb)
Calm - 10SM
06:53
Partly Cloudy
72°F / 22°C 68°F / 20°C 88% 29.98 in
(1015 mb)
Calm - 10SM
06:23
Mostly Cloudy
72°F / 22°C 68°F / 20°C 88% 29.98 in
(1015 mb)
Calm - 10SM
06:13
Overcast
72°F / 22°C 68°F / 20°C 88% 29.98 in
(1015 mb)
Calm - 10SM
05:53
Overcast
72°F / 22°C 68°F / 20°C 88% 29.98 in
(1015 mb)
Calm - 10SM
04:53
Mostly Cloudy
72°F / 22°C 66°F / 19°C 83% 29.98 in
(1015 mb)
Calm - 10SM
03:53
Partly Cloudy
72°F / 22°C 66°F / 19°C 83% 29.98 in
(1015 mb)
S 3.5 mph
(S 6 kph)
- 10SM
02:53
Overcast
72°F / 22°C 66°F / 19°C 83% 29.98 in
(1015 mb)
Calm - 10SM
01:53
Clear
70°F / 21°C 66°F / 19°C 88% 29.98 in
(1015 mb)
SSE 3.5 mph
(SSE 6 kph)
- 10SM
00:53
Clear
70°F / 21°C 66°F / 19°C 88% 30.01 in
(1016 mb)
SE 3.5 mph
(SE 6 kph)
0.00 in
(0.00 mm)
10SM
00:11
Partly Cloudy
Light Rain
70°F / 21°C 66°F / 19°C 88% 30.01 in
(1016 mb)
SW 5.8 mph
(SW 9 kph)
0.00 in
(0.00 mm)
10SM
Time Weather Temperature Dewpoint Humidity Pressure Winds Precip Visibility


Weather for websites

WeatherForYou.com, LLC is not responsible for any damages or problems caused by this service. Current weather conditions are obtained from the closest station including government and personal stations which may have varying degrees of accuracy. Weather forecasts are derived from the NOAA NDFD. Like all things, this site belongs to Jesus Christ... He just trusts us to maintain it. If you have any questions or comments email webmaster@weatherforyou.com

Copyright © 2016, WeatherForYou.com LLC. All rights reserved.